Tracking 28096 objects as of 28-Sep-2023
HD Live streaming from Space Station
objects crossing your sky now

STARLINK-4332

Track STARLINK-4332 now!
10-day predictions
STARLINK-4332 is classified as:


NORAD ID: 53190
Int'l Code: 2022-084B
Perigee: 568.1 km
Apogee: 572.2 km
Inclination: 97.7 °
Period: 95.9 minutes
Semi major axis: 6941 km
RCS: Unknown
Launch date: July 22, 2022
Source: United States (US)
Launch site: AIR FORCE WESTERN TEST RANGE (AFWTR)
Your satellite tracking list
Your tracking list is empty




NASA's NSSDC Master Catalog

Two Line Element Set (TLE):
1 53190U 22084B   23270.73947426 -.00001802  00000-0 -13578-3 0  9990
2 53190  97.6555 330.3251 0002960 189.1372 170.9798 15.01252629 65579
Source of the keplerian elements: AFSPC